Regional Weather Roundup
Issued by NWS

Home | Current Version | Previous Version | Text Only | Print | Product List | Glossary Off
Versions: 1 2 3 4 5 6 7 8 9 10 11 12 13 14 15 16 17 18 19 20 21 22 23 24 25 26 27 28 29 30 31 32 33 34 35 36 37 38 39 40 41 42 43 44 45 46 47 48 49 50

000
ASUS45 KTFX 290719
RWRMT
MONTANA HOURLY WEATHER ROUNDUP
NATIONAL WEATHER SERVICE GREAT FALLS MT
1219 AM MST THU JAN 29 2015

NOTE: "FAIR" INDICATES FEW OR NO CLOUDS BELOW 12000 FEET WITH NO
SIGNIFICANT WEATHER AND/OR OBSTRUCTIONS TO VISIBILITY.

* THESE STATIONS ARE NOT UNDER NWS QUALITY CONTROL. THEY DO NOT
   REPORT WEATHER SUCH AS PRECIPITATION OR FOG.

MTZ001>007-043-290800-
WEST OF THE DIVIDE
CITY           SKY/WX    TMP DP  RH WIND       PRES   REMARKS
KALISPELL      FOG       18  14  84 CALM      30.43R VSB M1/4
MISSOULA       CLEAR     28  25  89 CALM      30.45R
BUTTE          PTCLDY    21  19  92 S5        30.41R WCI  14
MULLAN PASS    CLEAR     27  25  92 S5        30.36R WCI  21
* ANACONDA     PTCLDY    27  19  72 S5         N/A   WCI  21
* ESSEX        N/A       22  20  92 N/A        N/A
* EUREKA APT   CLEAR     27  23  85 CALM      30.45R
* HAMILTON APT PTCLDY    32  23  69 S10       30.43R WCI  24
* LIBBY APT    CLEAR     23  21  92 CALM      30.47R
* LINCOLN      N/A       21  19  92 N/A        N/A
* LOOKOUT PASS N/A       27  25  92 S1         N/A
* POLSON       N/A       30  26  85 N/A        N/A
* RONAN APT    CLEAR     28  27  96 N/A        N/A
* SEELEY LAKE  N/A       18  15  88 N/A        N/A
* THOMP F APT  CLEAR     29  27  92 NE2        N/A
$$

MTZ008-052>055-290800-
SOUTHWEST MONTANA
CITY           SKY/WX    TMP DP  RH WIND       PRES   REMARKS
BOZEMAN        CLEAR     27  21  78 SE5       30.41R WCI  21
DILLON         PTCLDY    27  21  78 S7        30.40R WCI  19
* W YELLOWSTON CLEAR     29  27  92 N/A        N/A
* THREE FORKS  CLEAR     25  25 100 N/A        N/A
* BOULDER HILL N/A       28  16  61 SW6        N/A   WCI  21
* MONIDA PASS  N/A       26  26 100 SE6        N/A   WCI  19
* RAYNOLDS PAS N/A       26   7  44 SE4        N/A
* WHITEHALL    N/A       27  21  78 N2G9       N/A
* WISE RIVER   N/A       24  18  78 SW2G7      N/A
$$

MTZ009>010-012-014-046-048-049-054-290800-
EAST SLOPES AND CENTRAL MONTANA
CITY           SKY/WX    TMP DP  RH WIND       PRES   REMARKS
CUT BANK       FOG       25  25 100 S3        30.34S
GREAT FALLS    CLEAR     28  27  96 S3        30.37S
HELENA         CLEAR     30  21  69 CALM      30.40R
MALMSTROM AFB  FOG       27  27 100 S5        30.38F WCI  21
* CONRAD       CLEAR     25  23  92 CALM       N/A
* DEARBORN     N/A       29  25  85 SW2        N/A
* EAST GLACIER N/A       32  23  69 W12G17     N/A   WCI  23
* MONARCH      N/A       26  21  81 S4G9       N/A
* PENDROY      N/A       25  25 100 N/A        N/A
* ROGERS PASS  N/A       30  20  66 S3G8       N/A
* SWEET GRASS  N/A       28  28 100 S15        N/A   WCI  16
* WHITE SULPH  N/A       28  24  85 NE5        N/A   WCI  22
$$

MTZ011-013-016-021-035-040-045-047-050-051-290800-
NORTH CENTRAL MONTANA
CITY           SKY/WX    TMP DP  RH WIND       PRES   REMARKS
HAVRE          CLEAR     25  21  85 W5        30.41R WCI  19
LEWISTOWN      CLEAR     27  23  85 SE5       30.39R WCI  21
* N BAR RANCH  CLEAR     28  21  75 NW6       30.40S WCI  21
* CHINOOK      CLEAR     23  21  92 CALM      30.42R
* CHESTER      N/A       25  23  92 S2         N/A
* DENTON       N/A       25  25 100 SW2        N/A
* GEYSER       N/A       23  21  92 SW6        N/A   WCI  16
* JUDITH GAP   N/A       28  24  85 S5         N/A   WCI  22
* LOMA         N/A       26  26 100 SW2        N/A
$$

MTZ017>020-022>027-061-062-290800-
NORTHEAST MONTANA
CITY           SKY/WX    TMP DP  RH WIND       PRES   REMARKS
GLASGOW        CLEAR     27  23  85 NW3       30.40R
GLENDIVE       CLEAR     28  25  89 NW10      30.39R WCI  19
JORDAN         CLEAR     25  23  92 NW6       30.41R WCI  18
SIDNEY         MOCLDY    30  23  75 NW9       30.40R WCI  22
WOLF POINT     MOCLDY    28  25  89 W7        30.42R WCI  21
* BEAVER HILL  N/A       32  24  72 NW19G28    N/A   WCI  20
* CIRCLE       N/A       26  24  92 N/A        N/A
* LINDSAY DVD  N/A       29  25  85 W19        N/A   WCI  16
* NAVAJO       N/A       26  21  81 NW18       N/A   WCI  13
* PLENTYWOOD A PTCLDY    25  21  85 NW17G23   30.36R WCI  12
* POPLAR APT   CLEAR     30  25  82 N/A       30.41R
* SACO         N/A       26  25  96 SW3        N/A
* SCOBEY APT   PTCLDY    28  21  75 NW7        N/A   WCI  21
$$

MTZ028>042-056>058-290800-
SOUTHCENTRAL AND SOUTHEAST MONTANA
CITY           SKY/WX    TMP DP  RH WIND       PRES   REMARKS
BAKER          CLOUDY    32  25  75 NW16G25   30.36R WCI  21
BILLINGS       MOCLDY    36  27  70 CALM      30.42R
LIVINGSTON     CLEAR     30  25  82 W3        30.39S
MILES CITY     CLEAR     27  25  92 W6        30.42R WCI  20
* BIG TIMBER A CLEAR     32  27  82 CALM      30.41R
* FORSYTH APT  CLEAR     30  27  89 CALM      30.43R
* LAUREL APT   PTCLDY    34  18  52 N/A        N/A
* ROUNDUP APT  PTCLDY    28  21  75 N/A        N/A
* ALZADA       N/A       31  28  89 W8         N/A   WCI  24
* HYSHAM       N/A       31  29  92 W2         N/A
* LAME DEER    N/A       28  22  78 W9         N/A   WCI  19
* REED POINT   N/A       34  27  76 E4         N/A
$$

REGIONAL REPORTS...DAKOTAS
CITY           SKY/WX    TMP DP  RH WIND       PRES   REMARKS
WILLISTON      CLOUDY    30  25  82 NW12      30.35R WCI  20
DICKINSON      CLOUDY    34  25  70 NW18G26   30.27R WCI  23
BEACH          CLOUDY    32  28  85 NW16      30.35R WCI  21
CROSBY         CLOUDY    25  25 100 NW18      30.35R WCI  11
TIOGA          CLOUDY    25  25 100 N18G25    30.34R WCI  11
WATFORD CITY   CLOUDY    28  27  96 N14G20    30.32R WCI  17
BISMARCK       CLOUDY    32  27  82 NW14      30.27R WCI  22
GRAND FORKS    CLOUDY    21  18  88 NW22G29   30.16R WCI   5
FARGO          CLOUDY    28  23  81 NW28G33   30.11R WCI  13
BUFFALO SD     CLEAR     34  25  70 NW25G32   30.26R WCI  21
RAPID CITY     CLOUDY    34  27  76 N26G33    30.33R WCI  21
$$

REGIONAL REPORTS...WYOMING/IDAHO/WASHINGTON
CITY           SKY/WX    TMP DP  RH WIND       PRES   REMARKS
GILLETTE       CLEAR     27  21  78 CALM      30.38R
SHERIDAN       MOCLDY    28  25  89 SW6       30.42R WCI  21
CODY           CLOUDY    36  28  73 CALM      30.39S
YELLOWSTONE LA PTCLDY    21  19  92 CALM      30.41S
SALMON         CLOUDY    18  16  92 CALM      30.45R VSB 1/2
MULLAN PASS    CLEAR     27  25  92 S5        30.36S WCI  21
SAND POINT     FOG       32  32 100 NE3       30.47R VSB M1/4
SPOKANE        FOG       34  32  92 NE7       30.43R VSB M1/4 WCI  28
$$

REGIONAL REPORTS...ALBERTA
CITY           SKY/WX    TMP DP  RH WIND       PRES   REMARKS
CALGARY        MOCLDY    27  23  85 S5        30.29S WCI  21
LETHBRIDGE     CLEAR     28  25  89 SW8       30.32R WCI  20
MEDICINE HAT   FOG       23  23 100 SE3       30.39S VSB 3
EDMONTON       FOG       19  18  96 SE8       30.36S VSB 3/4  WCI   9
WATERTON GATE  N/A       37  23  57 SW21G33    N/A   WCI  26
CARDSTON       N/A       30  23  75 SW8        N/A   WCI  22
MILK RIVER     N/A       27  23  85 S5         N/A   WCI  21
$$

REGIONAL REPORTS...SASKATCHEWAN
CITY           SKY/WX    TMP DP  RH WIND       PRES   REMARKS
SWIFT CURRENT  CLEAR     19  18  96 NW7       30.37R WCI  10
REGINA         CLOUDY    21  18  88 N14       30.37R WCI   8
VAL MARIE      N/A       21  19  92 S3         N/A
ASSINIBOIA     N/A       19  16  88 NW14       N/A   WCI   5
CORONACH       N/A       23  21  92 NW12       N/A   WCI  11

$$



USA.gov is the U.S. government's official web portal to all federal, state and local government web resources and services.